Meteo pe oră la Dziadkowskie

Astăzi, 16 Ianuarie, Sâmbătă

Timp Temperatura Precipitaţii Vânt Presiune Umiditate
00:00 -17°C° 0 mm 3 m/s 749 mmHg 92%
01:00 -17°C° 0 mm 3 m/s 749 mmHg 93%
02:00 -16°C° 0 mm 3 m/s 748 mmHg 96%
03:00 -16°C° 0 mm 3 m/s 748 mmHg 95%
04:00 -16°C° 0 mm 3 m/s 748 mmHg 95%
05:00 -16°C° 0 mm 3 m/s 748 mmHg 95%
06:00 -16°C° 0 mm 3 m/s 748 mmHg 95%
07:00 -17°C° 0 mm 3 m/s 748 mmHg 95%
08:00 -17°C° 0 mm 3 m/s 748 mmHg 96%
09:00 -16°C° 0 mm 3 m/s 748 mmHg 94%
10:00 -14°C° 0 mm 3 m/s 747 mmHg 93%
11:00 -13°C° 0 mm 3 m/s 747 mmHg 92%
12:00 -12°C° 0.1 mm 3 m/s 746 mmHg 92%
13:00 -11°C° 0.1 mm 4 m/s 746 mmHg 93%
14:00 -10°C° 0.1 mm 4 m/s 745 mmHg 93%
15:00 -10°C° 0.5 mm 5 m/s 744 mmHg 93%
16:00 -9°C° 0.5 mm 6 m/s 744 mmHg 94%
17:00 -8°C° 0.5 mm 7 m/s 743 mmHg 94%
18:00 -9°C° 0.4 mm 7 m/s 743 mmHg 94%
19:00 -10°C° 0.4 mm 6 m/s 743 mmHg 93%
20:00 -10°C° 0.4 mm 6 m/s 743 mmHg 92%
21:00 -12°C° 0 mm 5 m/s 743 mmHg 93%
22:00 -15°C° 0 mm 4 m/s 743 mmHg 93%
23:00 -16°C° 0 mm 3 m/s 744 mmHg 94%

Mâine, 17 Ianuarie, Duminică

Timp Temperatura Precipitaţii Vânt Presiune Umiditate
00:00 -15°C° 0 mm 2 m/s 744 mmHg 94%
01:00 -16°C° 0 mm 2 m/s 744 mmHg 95%
02:00 -16°C° 0 mm 2 m/s 745 mmHg 95%
03:00 -16°C° 0 mm 2 m/s 745 mmHg 95%
04:00 -16°C° 0 mm 2 m/s 746 mmHg 95%
05:00 -17°C° 0 mm 2 m/s 746 mmHg 95%
06:00 -17°C° 0 mm 2 m/s 747 mmHg 96%
07:00 -18°C° 0 mm 2 m/s 747 mmHg 96%
08:00 -18°C° 0 mm 2 m/s 748 mmHg 96%
09:00 -18°C° 0 mm 2 m/s 748 mmHg 96%
10:00 -17°C° 0 mm 2 m/s 749 mmHg 95%
11:00 -17°C° 0 mm 2 m/s 749 mmHg 94%
12:00 -16°C° 0 mm 2 m/s 749 mmHg 92%
13:00 -13°C° 0 mm 1 m/s 750 mmHg 91%
14:00 -12°C° 0 mm 1 m/s 750 mmHg 89%
15:00 -13°C° 0 mm 1 m/s 750 mmHg 91%
16:00 -16°C° 0 mm 2 m/s 750 mmHg 93%
17:00 -17°C° 0 mm 2 m/s 750 mmHg 94%
18:00 -17°C° 0 mm 2 m/s 750 mmHg 94%
19:00 -17°C° 0 mm 2 m/s 751 mmHg 93%
20:00 -15°C° 0 mm 1 m/s 751 mmHg 92%
21:00 -15°C° 0 mm 1 m/s 751 mmHg 91%
22:00 -15°C° 0 mm 1 m/s 751 mmHg 91%
23:00 -16°C° 0 mm 1 m/s 751 mmHg 90%

Poimâine, 18 Ianuarie, Luni

Timp Temperatura Precipitaţii Vânt Presiune Umiditate
00:00 -16°C° 0 mm 1 m/s 751 mmHg 91%
01:00 -18°C° 0 mm 2 m/s 751 mmHg 91%
02:00 -19°C° 0 mm 2 m/s 752 mmHg 91%
03:00 -19°C° 0 mm 2 m/s 751 mmHg 92%
04:00 -20°C° 0 mm 2 m/s 751 mmHg 92%
05:00 -20°C° 0 mm 2 m/s 751 mmHg 93%
06:00 -18°C° 0 mm 1 m/s 751 mmHg 93%
07:00 -18°C° 0 mm 1 m/s 752 mmHg 94%
08:00 -19°C° 0 mm 1 m/s 752 mmHg 94%
09:00 -17°C° 0 mm 1 m/s 752 mmHg 92%
10:00 -16°C° 0 mm 1 m/s 752 mmHg 90%
11:00 -15°C° 0 mm 1 m/s 752 mmHg 88%
12:00 -14°C° 0 mm 1 m/s 752 mmHg 87%
13:00 -13°C° 0 mm 1 m/s 752 mmHg 86%
14:00 -12°C° 0 mm 1 m/s 752 mmHg 85%
15:00 -13°C° 0 mm 1 m/s 752 mmHg 87%
16:00 -14°C° 0 mm 1 m/s 751 mmHg 89%
17:00 -15°C° 0 mm 1 m/s 751 mmHg 92%
18:00 -15°C° 0 mm 1 m/s 751 mmHg 92%
19:00 -15°C° 0 mm 1 m/s 751 mmHg 92%
20:00 -15°C° 0 mm 1 m/s 751 mmHg 92%
21:00 -15°C° 0 mm 1 m/s 751 mmHg 93%
22:00 -16°C° 0 mm 2 m/s 751 mmHg 93%
23:00 -16°C° 0 mm 2 m/s 751 mmHg 93%

19 Ianuarie, Marţi

Timp Temperatura Precipitaţii Vânt Presiune Umiditate
00:00 -16°C° 0 mm 2 m/s 750 mmHg 93%
01:00 -16°C° 0 mm 2 m/s 750 mmHg 93%
02:00 -15°C° 0 mm 2 m/s 750 mmHg 93%
03:00 -15°C° 0 mm 2 m/s 750 mmHg 92%
04:00 -15°C° 0 mm 2 m/s 749 mmHg 92%
05:00 -14°C° 0 mm 2 m/s 749 mmHg 92%
06:00 -14°C° 0.1 mm 3 m/s 749 mmHg 93%
07:00 -14°C° 0.1 mm 3 m/s 748 mmHg 94%
08:00 -13°C° 0.1 mm 3 m/s 748 mmHg 95%
09:00 -12°C° 0.2 mm 3 m/s 748 mmHg 95%
10:00 -9°C° 0.2 mm 3 m/s 748 mmHg 95%
11:00 -9°C° 0.2 mm 4 m/s 748 mmHg 95%
12:00 -6°C° 0.2 mm 3 m/s 748 mmHg 95%
13:00 -5°C° 0.2 mm 3 m/s 747 mmHg 96%
14:00 -4°C° 0.2 mm 3 m/s 747 mmHg 97%
15:00 -2°C° 0.1 mm 3 m/s 747 mmHg 97%
16:00 -2°C° 0.1 mm 3 m/s 746 mmHg 97%
17:00 -1°C° 0.1 mm 3 m/s 746 mmHg 97%
18:00 -1°C° 0 mm 3 m/s 746 mmHg 97%
19:00 -3°C° 0 mm 4 m/s 746 mmHg 96%
20:00 -3°C° 0 mm 4 m/s 746 mmHg 96%
21:00 -4°C° 0 mm 4 m/s 746 mmHg 95%
22:00 -5°C° 0 mm 5 m/s 746 mmHg 93%
23:00 -6°C° 0 mm 5 m/s 745 mmHg 92%

20 Ianuarie, Miercuri

Timp Temperatura Precipitaţii Vânt Presiune Umiditate
00:00 -6°C° 0.1 mm 5 m/s 745 mmHg 93%
01:00 -6°C° 0.1 mm 5 m/s 745 mmHg 94%
02:00 -7°C° 0.1 mm 5 m/s 744 mmHg 95%
03:00 -6°C° 0.3 mm 5 m/s 744 mmHg 95%
04:00 -6°C° 0.3 mm 6 m/s 744 mmHg 95%
05:00 -5°C° 0.3 mm 6 m/s 743 mmHg 96%
06:00 -5°C° 0.4 mm 6 m/s 743 mmHg 96%
07:00 -5°C° 0.4 mm 6 m/s 743 mmHg 96%
08:00 -4°C° 0.4 mm 6 m/s 743 mmHg 96%
09:00 -4°C° 0.1 mm 6 m/s 743 mmHg 95%
10:00 -3°C° 0.1 mm 6 m/s 743 mmHg 95%
11:00 -3°C° 0.1 mm 6 m/s 743 mmHg 95%
12:00 -2°C° 0 mm 6 m/s 743 mmHg 95%
13:00 -2°C° 0 mm 6 m/s 743 mmHg 95%
14:00 -2°C° 0 mm 6 m/s 743 mmHg 95%
15:00 -2°C° 0 mm 6 m/s 742 mmHg 93%
16:00 -2°C° 0 mm 6 m/s 742 mmHg 92%
17:00 -2°C° 0 mm 6 m/s 742 mmHg 91%
18:00 -2°C° 0 mm 6 m/s 742 mmHg 90%
19:00 -2°C° 0 mm 6 m/s 742 mmHg 89%
20:00 -2°C° 0 mm 6 m/s 742 mmHg 88%
21:00 -2°C° 0 mm 6 m/s 742 mmHg 87%
22:00 -2°C° 0 mm 6 m/s 742 mmHg 86%
23:00 -3°C° 0 mm 6 m/s 742 mmHg 85%

21 Ianuarie, Joi

Timp Temperatura Precipitaţii Vânt Presiune Umiditate
00:00 -3°C° 0 mm 6 m/s 742 mmHg 86%
01:00 -3°C° 0 mm 6 m/s 742 mmHg 86%
02:00 -3°C° 0 mm 6 m/s 742 mmHg 86%
03:00 -3°C° 0 mm 6 m/s 741 mmHg 86%
04:00 -2°C° 0 mm 6 m/s 741 mmHg 86%
05:00 -2°C° 0 mm 6 m/s 741 mmHg 86%
06:00 -2°C° 0 mm 6 m/s 741 mmHg 87%
07:00 -1°C° 0 mm 5 m/s 741 mmHg 87%
08:00 -1°C° 0 mm 5 m/s 741 mmHg 87%
09:00 -1°C° 0 mm 5 m/s 741 mmHg 89%
10:00 -1°C° 0 mm 5 m/s 741 mmHg 91%
11:00 0°C° 0 mm 5 m/s 740 mmHg 93%
12:00 0°C° 0 mm 5 m/s 740 mmHg 95%
13:00 0°C° 0 mm 5 m/s 739 mmHg 97%
14:00 0°C° 0 mm 5 m/s 739 mmHg 99%
15:00 0°C° 0 mm 5 m/s 738 mmHg 97%
16:00 0°C° 0 mm 5 m/s 738 mmHg 95%
17:00 0°C° 0 mm 5 m/s 738 mmHg 93%
18:00 0°C° 0 mm 5 m/s 738 mmHg 92%
19:00 0°C° 0 mm 5 m/s 739 mmHg 92%
20:00 0°C° 0 mm 5 m/s 739 mmHg 91%
21:00 -1°C° 0 mm 5 m/s 740 mmHg 90%
22:00 -1°C° 0 mm 5 m/s 740 mmHg 89%
23:00 -2°C° 0 mm 5 m/s 741 mmHg 88%
Arată mai mult

Formular de consimțământ

Meteoprog și furnizorii noștri de servicii pot stoca și accesa date personale, precum cookies, identificatori de dispozitiv sau alte tehnologii similare pe dispozitivul dumneavoastră și procesa astfel de date pentru a personaliza conținutul și reclamele, dar și pentru a oferi caracteristici de social media și pentru a analiza traficul.

  • Stocarea și/sau accesarea informațiilor pe dispozitivul dumneavoastră

    Cookies, identificatori de dispozitiv sau alte informații pot fi stocate sau accesate pe dispozitiv în scopurile indicate mai sus.

  • Reclame și conținut personalizat, evaluarea reclamelor și a conținutului, informații despre audiențe și dezvoltarea produselor

    Reclamele și conținutul pot fi personalizate pe baza unui profil. Pot fi adăugate date suplimentare pentru a personaliza mai bine reclamele și conținutul. Performanța reclamelor și conținutului poate fi măsurată. Pot fi obținute informații despre utilizatorii care au văzut reclamele și conținutul. Aceste date pot fi utilizate pentru a dezvolta sau îmbunătăți experiența utilizatorilor, sistemele și software-ul.

Dând clic pe ‘Sunt de acord’, permiteți utilizarea cookie-urilor menționate, a identificatorilor de dispozitiv, balizelor web sau altor tehnologii similare. Setările pot fi modificate din browser-ul dispozitivului dumneavoastră.

În anumite scopuri, interesele legitime pot prima asupra consimțământului. Puteți citi mai multe informații în acest sens în Politica privind Confidențialitatea Datelor și Cookie.